Location: ????????
(56.1167°N, 38.6333°E)
Time: 08:26:11
(UTC+00:00)

Timation 2 Rocket - Pass Details

Date: 18 November 2025
Orbit: 904 x 1074 km, 70.0° (Epoch: 14 December)

Event Time Altitude Azimuth Distance (km) Brightness Sun altitude
Rises 15:39:23 0° 213° (SSW) 3,855 7.7 -19.9°
Reaches altitude 10° 15:42:00 10° 214° (SSW) 2,906 7.0 -20.3°
Maximum altitude 15:48:53 89° 129° (SE) 1,079 4.1 -21.3°
Enters shadow 15:53:26 23° 37° (NE) 2,082 5.4 -21.9°
